Regional Weather Roundup
Issued by NWS

Home | Current Version | Previous Version | Text Only | Print | Product List | Glossary Off
Versions: 1 2 3 4 5 6 7 8 9 10 11 12 13 14 15 16 17 18 19 20 21 22 23 24 25 26 27 28 29 30 31 32 33 34 35 36 37 38 39 40 41 42 43 44 45 46 47 48 49 50

000
ASUS43 KLSX 252007
RWRMO
STLRWRMO ALL

WEATHER SUMMARY FOR MISSOURI
NATIONAL WEATHER SERVICE SPRINGFIELD MO
300 PM CDT TUE APR 25 2017

NOTE: "FAIR" INDICATES FEW OR NO CLOUDS BELOW 12,000 FEET WITH NO
       SIGNIFICANT WEATHER AND/OR OBSTRUCTIONS TO VISIBILITY.
       CURRENT SKY AND/OR WEATHER CONDITIONS ARE NOT AVAILABLE FOR
       CHILLICOTHE AND FARMINGTON.

MOZ001>031-035>038-043-044-053-054-252100-
...NORTHERN AND WESTERN MISSOURI...

CITY           SKY/WX    TMP DP  RH WIND       PRES   REMARKS
KANSAS CTY INT CLOUDY    70  55  59 S8        29.41F
KANSAS C DTWN  CLOUDY    73  56  54 S8        29.39F
LEE`S SUMMIT   CLOUDY    73  56  54 SW10      29.42F
ST JOSEPH      CLOUDY    70  55  59 S8        29.41F
CHILLICOTHE      N/A     74  53  48 S9        29.42F
KIRKSVILLE     PTSUNNY   77  52  41 SE21      29.44F

$$
MOZ066>068-077>081-088>096-101>105-252100-
...SOUTHWEST MISSOURI...

CITY           SKY/WX    TMP DP  RH WIND       PRES   REMARKS
SPRINGFIELD    MOSUNNY   81  58  45 S20G28    29.43F
JOPLIN         MOSUNNY   79  60  52 S18       29.42S
BRANSON        PTSUNNY   77  55  47 S15G24    29.48F

$$
MOZ032>034-039>042-045>050-055>058-069>072-252100-
...CENTRAL MISSOURI...

CITY           SKY/WX    TMP DP  RH WIND       PRES   REMARKS
COLUMBIA       MOSUNNY   81  54  39 S22G32    29.43F
JEFFERSON CITY CLOUDY    84  51  31 S21G35    29.42F
ROLLA          SUNNY     79  50  36 S22G33    29.46F
SEDALIA        CLOUDY    80  55  42 S18G26    29.43S
WHITEMAN AFB   PTSUNNY   79  56  44 SW16      29.40F
OSAGE BEACH    MOSUNNY   80  54  40 S21       29.45F

$$
MOZ051-052-059>065-252100-
...EAST CENTRAL MISSOURI...

CITY           SKY/WX    TMP DP  RH WIND       PRES   REMARKS
ST LOUIS INTL  PTSUNNY   82  51  34 SE23G33   29.51F
SPIRIT OF STL  MOSUNNY   81  45  28 SE20G33   29.48F
ST CHARLES     MOSUNNY   81  50  33 SE26G35   29.49F

$$
MOZ072>076-082>087-097>100-106>115-252100-
...SOUTH CENTRAL AND SOUTHEAST MISSOURI...

CITY           SKY/WX    TMP DP  RH WIND       PRES   REMARKS
CAPE GIRARDEAU SUNNY     76  51  41 S16       29.63F
FARMINGTON     SUNNY     76  52  43 SE23      29.57F
POPLAR BLUFF   SUNNY     77  55  46 S13       29.61F
WEST PLAINS    SUNNY     77  51  40 S18G26    29.54F

$$




USA.gov is the U.S. government's official web portal to all federal, state and local government web resources and services.